Date String (YYYY-MM-DD hh:mm:ss) UTC,Instrument flags,absolute air pressure of the measurement (hPa),sample flow rate (lpm),inlet stack bypass flow (lpm),air temperature of the measurement (°C),ambient temperature measured by the external sensor (°C),aerosol sample conditioner tube jacket temperature (°C),OPC LED temperature (°C),internal box temperature (°C),relative humidity of the measurement (%),span deviation,mass concentration of particles derived from Lorenz-Mie calculation of OPC scattering (μg/m³),mass concentration of particles derived from Lorenz-Mie calculation of OPC scattering (μg/m³),mass concentration of particles derived from Lorenz-Mie calculation of OPC scattering (μg/m³)
DateTimeUTC,F1_M11,P_M11,Q1_M11,Q2_M11,T1_M11,T2_M11,T3_M11,T4_M11,T5_M11,U1_M11,ZSPAN_M11,X2_M11,X0_M11,X1_M11
2023-09-17 17:00:00,SystemResetWarning,0835.3,5.00,000.00,027.8,024.9,000.0,036.3,029.1,24.1,0000.0,0003.98,0007.53,0003.61
2023-09-17 17:01:00,SystemResetWarning,0835.3,5.00,000.00,027.8,025.2,000.0,036.3,029.2,23.6,0000.0,0003.99,0007.99,0003.62
2023-09-17 17:02:00,SystemResetWarning,0835.3,4.99,000.00,027.8,025.6,000.0,036.2,029.2,23.3,0000.0,0004.02,0008.10,0003.62
2023-09-17 17:03:00,SystemResetWarning,0835.3,4.99,000.00,027.9,025.9,000.0,036.2,029.3,23.3,0000.0,0004.04,0008.09,0003.63
2023-09-17 17:04:00,SystemResetWarning,0835.2,5.01,000.00,027.9,026.1,000.0,036.2,029.4,23.8,0000.0,0004.08,0008.18,0003.65
2023-09-17 17:05:00,SystemResetWarning,0835.3,5.01,000.00,027.9,026.3,000.0,036.2,029.5,23.5,0000.0,0004.07,0008.15,0003.65
2023-09-17 17:06:00,SystemResetWarning,0835.3,5.01,000.00,027.9,026.5,000.0,036.2,029.5,22.8,0000.0,0004.08,0008.37,0003.65
2023-09-17 17:07:00,SystemResetWarning,0835.3,4.99,000.00,028.0,026.7,000.0,036.3,029.6,22.6,0000.0,0004.07,0008.36,0003.66
2023-09-17 17:08:00,SystemResetWarning,0835.3,4.99,000.00,028.0,026.8,000.0,036.3,029.7,23.1,0000.0,0004.10,0008.34,0003.68
2023-09-17 17:09:00,SystemResetWarning,0835.3,5.00,000.00,028.1,027.0,000.0,036.3,029.7,22.6,0000.0,0004.09,0008.13,0003.69
2023-09-17 17:10:00,SystemResetWarning,0835.2,5.01,000.00,028.1,027.0,000.0,036.3,029.7,22.4,0000.0,0004.13,0008.30,0003.71
2023-09-17 17:11:00,SystemResetWarning,0835.3,4.99,000.00,028.1,026.0,000.0,036.3,029.5,22.3,0000.0,0004.14,0008.24,0003.71
2023-09-17 17:12:00,SystemResetWarning,0835.3,5.00,000.00,028.0,024.5,000.0,036.2,029.1,22.4,0000.0,0004.12,0007.76,0003.72
2023-09-17 17:13:00,SystemResetWarning,0835.3,5.01,000.00,027.9,024.3,000.0,036.2,029.1,22.2,0000.0,0004.12,0007.81,0003.74
2023-09-17 17:14:00,SystemResetWarning,0835.3,5.01,000.00,027.8,024.6,000.0,036.2,029.1,21.6,0000.0,0004.14,0007.79,0003.75
2023-09-17 17:15:00,SystemResetWarning,0835.2,4.99,000.00,027.8,024.9,000.0,036.2,029.1,21.6,0000.0,0004.12,0007.77,0003.76
2023-09-17 17:16:00,SystemResetWarning,0835.2,4.99,000.00,027.8,025.3,000.0,036.2,029.2,22.2,0000.0,0004.15,0007.81,0003.78
2023-09-17 17:17:00,SystemResetWarning,0835.2,5.00,000.00,027.8,025.6,000.0,036.2,029.2,22.0,0000.0,0004.15,0007.34,0003.80
2023-09-17 17:18:00,SystemResetWarning,0835.2,5.00,000.00,027.8,025.9,000.0,036.2,029.3,20.9,0000.0,0004.18,0007.37,0003.82
2023-09-17 17:19:00,SystemResetWarning,0835.2,5.01,000.00,027.8,026.2,000.0,036.2,029.4,22.1,0000.0,0004.19,0007.59,0003.85
2023-09-17 17:20:00,SystemResetWarning,0835.2,5.01,000.00,027.9,026.4,000.0,036.2,029.4,21.6,0000.0,0004.23,0008.04,0003.85
2023-09-17 17:21:00,SystemResetWarning,0835.2,5.00,000.00,027.9,026.5,000.0,036.2,029.5,21.7,0000.0,0004.22,0007.95,0003.85
2023-09-17 17:22:00,SystemResetWarning,0835.2,5.00,000.00,028.0,026.7,000.0,036.2,029.5,21.6,0000.0,0004.25,0007.88,0003.86
2023-09-17 17:23:00,SystemResetWarning,0835.2,5.00,000.00,028.0,026.8,000.0,036.2,029.6,20.9,0000.0,0004.26,0007.89,0003.86
2023-09-17 17:24:00,SystemResetWarning,0835.2,4.99,000.00,028.1,026.8,000.0,036.2,029.7,21.0,0000.0,0004.25,0007.95,0003.86
2023-09-17 17:25:00,SystemResetWarning,0835.2,4.99,000.00,028.0,025.6,000.0,036.2,029.4,21.3,0000.0,0004.26,0008.02,0003.87
2023-09-17 17:26:00,SystemResetWarning,0835.1,5.01,000.00,027.9,024.3,000.0,036.1,029.0,21.1,0000.0,0004.29,0008.08,0003.87
2023-09-17 17:27:00,SystemResetWarning,0835.2,5.01,000.00,027.8,024.3,000.0,036.1,029.0,20.9,0000.0,0004.26,0007.95,0003.87
2023-09-17 17:28:00,SystemResetWarning,0835.1,5.00,000.00,027.7,024.6,000.0,036.1,029.0,21.0,0000.0,0004.25,0007.86,0003.86
2023-09-17 17:29:00,SystemResetWarning,0835.2,4.99,000.00,027.7,025.0,000.0,036.1,029.0,20.2,0000.0,0004.24,0007.88,0003.85
2023-09-17 17:30:00,SystemResetWarning,0835.1,5.00,000.00,027.7,025.3,000.0,036.1,029.1,20.1,0000.0,0004.23,0008.16,0003.84
2023-09-17 17:31:00,SystemResetWarning,0835.1,5.01,000.00,027.7,025.6,000.0,036.1,029.2,20.7,0000.0,0004.20,0007.80,0003.83
2023-09-17 17:32:00,SystemResetWarning,0835.1,5.01,000.00,027.8,025.9,000.0,036.1,029.2,21.7,0000.0,0004.17,0007.77,0003.82
2023-09-17 17:33:00,SystemResetWarning,0835.1,4.99,000.00,027.8,026.2,000.0,036.1,029.3,21.6,0000.0,0004.15,0007.75,0003.81
2023-09-17 17:34:00,SystemResetWarning,0835.1,4.99,000.00,027.8,026.4,000.0,036.1,029.4,20.2,0000.0,0004.15,0007.78,0003.80
2023-09-17 17:35:00,SystemResetWarning,0835.1,5.00,000.00,027.9,026.5,000.0,036.1,029.4,21.0,0000.0,0004.13,0007.68,0003.78
2023-09-17 17:36:00,SystemResetWarning,0835.1,5.01,000.00,027.9,026.7,000.0,036.1,029.5,21.9,0000.0,0004.10,0007.47,0003.77
2023-09-17 17:37:00,SystemResetWarning,0835.0,5.01,000.00,027.9,026.8,000.0,036.2,029.6,20.7,0000.0,0004.04,0007.37,0003.74
2023-09-17 17:38:00,SystemResetWarning,0835.0,4.99,000.00,028.0,026.8,000.0,036.2,029.6,20.3,0000.0,0004.03,0007.37,0003.71
2023-09-17 17:39:00,SystemResetWarning,0835.0,4.99,000.00,027.9,025.4,000.0,036.1,029.2,20.4,0000.0,0004.04,0007.40,0003.69
2023-09-17 17:40:00,SystemResetWarning,0834.9,5.01,000.00,027.8,024.2,000.0,036.1,029.0,20.5,0000.0,0004.02,0007.37,0003.67
2023-09-17 17:41:00,SystemResetWarning,0834.9,5.00,000.00,027.7,024.3,000.0,036.0,029.0,20.7,0000.0,0004.03,0006.86,0003.67
2023-09-17 17:42:00,SystemResetWarning,0834.9,5.00,000.00,027.7,024.6,000.0,036.0,029.0,20.7,0000.0,0004.01,0006.65,0003.65
2023-09-17 17:43:00,SystemResetWarning,0834.9,4.99,000.00,027.7,025.0,000.0,036.1,029.0,20.9,0000.0,0004.02,0006.75,0003.63
2023-09-17 17:44:00,SystemResetWarning,0834.9,5.00,000.00,027.7,025.3,000.0,036.0,029.1,20.2,0000.0,0004.00,0006.84,0003.61
2023-09-17 17:45:00,SystemResetWarning,0834.9,5.01,000.00,027.7,025.7,000.0,036.0,029.2,20.1,0000.0,0003.97,0006.85,0003.59
2023-09-17 17:46:00,SystemResetWarning,0835.3,4.99,000.00,027.7,025.9,000.0,036.1,029.2,20.0,0000.0,0003.96,0006.69,0003.58
2023-09-17 17:47:00,SystemResetWarning,0835.3,4.99,000.00,027.7,026.2,000.0,036.1,029.3,19.9,0000.0,0003.93,0007.78,0003.55
2023-09-17 17:48:00,SystemResetWarning,0835.3,5.00,000.00,027.8,026.4,000.0,036.1,029.4,19.1,0000.0,0003.92,0007.73,0003.55
2023-09-17 17:49:00,SystemResetWarning,0835.4,5.00,000.00,027.8,026.6,000.0,036.1,029.4,18.4,0000.0,0003.92,0007.78,0003.55
2023-09-17 17:50:00,SystemResetWarning,0834.9,5.02,000.00,027.9,026.7,000.0,036.1,029.5,18.7,0000.0,0003.89,0007.79,0003.55
2023-09-17 17:51:00,SystemResetWarning,0834.8,5.00,000.00,027.9,026.8,000.0,036.1,029.6,19.6,0000.0,0003.87,0007.92,0003.53
2023-09-17 17:52:00,SystemResetWarning,0834.7,4.98,000.00,027.9,025.9,000.0,036.1,029.4,19.8,0000.0,0003.83,0008.39,0003.51
2023-09-17 17:53:00,SystemResetWarning,0834.7,5.01,000.00,027.8,024.4,000.0,036.0,028.9,19.7,0000.0,0003.81,0008.27,0003.49
2023-09-17 17:54:00,SystemResetWarning,0834.8,5.01,000.00,027.7,024.2,000.0,036.0,029.0,19.9,0000.0,0003.78,0008.27,0003.46
2023-09-17 17:55:00,SystemResetWarning,0834.8,5.00,000.00,027.6,024.5,000.0,036.0,028.9,19.7,0000.0,0003.75,0008.12,0003.46
2023-09-17 17:56:00,SystemResetWarning,0834.8,5.00,000.00,027.6,024.8,000.0,036.0,028.9,18.7,0000.0,0003.74,0008.07,0003.44
2023-09-17 17:57:00,SystemResetWarning,0834.7,5.01,000.00,027.6,025.2,000.0,036.0,029.0,19.3,0000.0,0003.74,0008.08,0003.44
2023-09-17 17:58:00,SystemResetWarning,0834.7,4.99,000.00,027.6,025.5,000.0,036.0,029.1,18.5,0000.0,0003.75,0007.33,0003.44
2023-09-17 17:59:00,SystemResetWarning,0834.9,5.00,000.00,027.7,025.9,000.0,036.0,029.2,18.7,0000.0,0003.75,0007.27,0003.43
